CDT,Max TemperatureF,Mean TemperatureF,Min TemperatureF,Max Dew PointF,MeanDew PointF,Min DewpointF,Max Humidity, Mean Humidity, Min Humidity, Max Sea Level PressureIn, Mean Sea Level PressureIn, Min Sea Level PressureIn, Max VisibilityMiles, Mean VisibilityMiles, Min VisibilityMiles, Max Wind SpeedMPH, Mean Wind SpeedMPH, Max Gust SpeedMPH,PrecipitationIn, CloudCover, Events, WindDirDegrees
2012-10-1,76,68,60,72,62,57,93,89,84,29.70,29.60,29.50,10,7,2,16,6,21,0.75,8,Rain,354
2012-10-2,73,63,52,57,55,51,93,71,49,30.00,29.81,29.67,10,7,2,12,4,16,0.01,6,,300
2012-10-3,78,64,50,58,53,48,96,68,40,30.18,30.08,30.01,10,5,0,13,3,20,0.00,1,Fog,173
2012-10-4,83,70,56,61,57,54,93,69,45,30.29,30.24,30.19,10,6,0,9,2,13,0.00,1,Fog,201
2012-10-5,84,70,55,62,56,54,93,68,43,30.22,30.15,30.00,10,4,0,14,3,18,0.00,0,Fog,192
2012-10-6,67,57,47,63,49,42,93,77,60,30.18,30.10,29.99,10,10,7,17,7,24,0.24,8,Rain,2
2012-10-7,64,56,48,44,41,36,86,61,36,30.25,30.17,30.13,10,10,3,12,6,20,0.07,4,Rain,358
2012-10-8,62,52,42,47,43,41,92,72,51,30.24,30.19,30.14,10,8,1,9,3,15,0.25,5,Rain,30
2012-10-9,68,53,38,48,42,36,93,69,44,30.20,30.14,30.04,10,4,0,8,1,12,0.00,2,Fog,138
2012-10-10,71,58,45,55,51,41,89,71,53,30.24,30.16,30.08,10,10,10,14,4,17,0.00,5,,331
2012-10-11,67,55,43,57,49,39,89,73,56,30.32,30.25,30.22,10,10,10,9,2,13,0.00,6,,92
2012-10-12,76,66,56,65,60,54,90,77,64,30.31,30.25,30.19,10,9,7,9,3,13,0.00,6,,102
2012-10-13,83,73,63,64,63,61,93,72,51,30.27,30.21,30.11,10,6,1,16,7,22,0.00,6,,137
2012-10-14,76,71,65,67,63,60,93,79,64,30.12,30.02,29.94,10,8,1,25,10,32,0.29,5,Rain-Thunderstorm,195
2012-10-15,76,63,50,65,55,43,93,63,33,30.04,29.98,29.95,10,7,0,13,4,18,0.00,1,Fog,313
2012-10-16,77,61,45,52,48,43,93,65,36,30.03,29.96,29.87,10,8,1,13,3,14,0.00,0,,194
2012-10-17,78,64,50,57,49,45,89,60,31,29.88,29.79,29.64,10,10,2,23,9,35,0.69,1,Rain-Thunderstorm,169
2012-10-18,71,62,52,61,53,38,93,62,31,29.85,29.78,29.71,10,8,1,18,6,24,0.09,3,Rain-Thunderstorm,237
2012-10-19,70,60,50,44,39,36,68,48,28,29.88,29.79,29.74,10,10,7,24,9,30,0.00,6,,255
2012-10-20,70,56,42,46,43,40,89,64,39,30.01,29.95,29.88,10,10,10,16,3,21,0.00,0,,286
2012-10-21,81,63,44,52,48,42,93,62,30,30.14,30.09,30.01,10,10,9,10,4,14,0.00,0,,161
2012-10-22,83,67,51,54,50,45,89,58,26,30.20,30.14,30.09,10,10,7,12,3,16,0.00,1,,171
2012-10-23,81,66,50,54,50,47,89,61,32,30.17,30.10,30.06,10,10,10,14,4,17,0.00,0,,147
2012-10-24,82,66,50,55,52,47,93,65,37,30.17,30.09,30.04,10,10,5,8,2,13,0.00,0,,148
2012-10-25,82,67,52,59,55,51,93,68,42,30.08,30.03,29.99,10,8,2,15,4,20,0.00,0,,164
2012-10-26,74,61,48,59,52,42,93,77,61,30.11,30.04,30.00,10,7,0,16,7,21,0.00,5,Fog,352
2012-10-27,53,50,47,43,41,36,82,68,54,30.10,30.06,30.01,10,10,8,14,9,21,0.01,8,Rain,360
2012-10-28,61,53,45,37,33,27,65,46,27,30.12,30.04,29.99,10,10,10,18,10,24,0.00,3,,348
2012-10-29,58,48,37,31,26,17,76,49,21,30.16,30.08,30.00,10,10,10,21,10,29,0.00,0,,332
2012-10-30,61,51,40,30,26,22,59,41,22,29.98,29.92,29.85,10,10,10,24,11,35,0.00,0,,301
2012-10-31,65,51,37,34,28,24,70,46,22,29.99,29.95,29.91,10,10,10,17,6,22,0.00,0,,292